Weather History for Taunton, MA

Change the Weather History Date:

Friday, February 8, 2013

  Actual Average Record
Temperature  
Mean Temperature 28 °F -  
Max Temperature 34 °F 35 °F 53 °F (1965)
Min Temperature 21 °F 15 °F -7 °F (1961)
Degree Days  
Heating Degree Days 38    
Moisture  
Dew Point 26 °F    
Average Humidity 81    
Maximum Humidity 100    
Minimum Humidity 66    
Precipitation  
Precipitation 1.31 in - - ()
Sea Level Pressure  
Sea Level Pressure 30.08 in    
Wind  
Wind Speed 7 mph (ENE)    
Max Wind Speed 28 mph    
Max Gust Speed 51 mph    
Visibility 4 miles    
Events Fog , Snow    
Averages and records for this station are not official NWS values.
T = Trace of Precipitation, MM = Missing Value Source: NWS Daily Summary

Daily Weather History Graph

Daily Weather History Graph

Search for Another Location

Airport:

Trip Planner

Search our weather history database for the weather conditions in past years. The results will help you decide how hot, cold, wet, or windy it might be!

Date:

Astronomy

Feb. 08, 2013 Rise Set
Actual Time 6:48 AM EST 5:08 PM EST
Civil Twilight 6:19 AM EST 5:37 PM EST
Nautical Twilight 5:46 AM EST 6:10 PM EST
Astronomical Twilight 5:14 AM EST 6:43 PM EST
Moon 5:15 AM EST (2/8) 3:37 PM EST (2/8)
Length of Visible Light 11h 18m
Length of Day
10h 20m
Waning Crescent, 3% of the Moon is Illuminated
Feb 8
Waning Crescent
Feb 10
New
Feb 17
First Quarter
Feb 25
Full
Mar 4
Last Quarter

Hourly Weather History & Observations

Time (EST) Temp. Windchill Dew Point Humidity Pressure Visibility Wind Dir Wind Speed Gust Speed Precip Events Conditions
12:25 AM 23.0 °F - 15.1 °F 72% 30.47 in 10.0 mi Calm Calm - N/A   Scattered Clouds
12:52 AM 21.9 °F - 15.1 °F 75% 30.45 in 10.0 mi Calm Calm - N/A   Scattered Clouds
1:52 AM 23.0 °F - 16.0 °F 74% 30.42 in 10.0 mi Calm Calm - N/A   Partly Cloudy
2:42 AM 26.1 °F - 17.1 °F 69% 30.40 in 10.0 mi Calm Calm - N/A   Overcast
2:52 AM 26.1 °F - 18.0 °F 71% 30.39 in 10.0 mi Calm Calm - N/A   Overcast
3:52 AM 28.0 °F 24.2 °F 19.9 °F 72% 30.36 in 10.0 mi East 3.5 mph - N/A   Overcast
4:52 AM 32.0 °F 25.6 °F 21.9 °F 66% 30.34 in 10.0 mi East 6.9 mph - N/A   Overcast
5:52 AM 32.0 °F 24.8 °F 21.9 °F 66% 30.32 in 10.0 mi East 8.1 mph - N/A   Overcast
6:52 AM 32.0 °F 25.6 °F 23.0 °F 69% 30.32 in 10.0 mi East 6.9 mph - N/A   Overcast
7:52 AM 33.1 °F 26.1 °F 23.0 °F 66% 30.29 in 10.0 mi East 8.1 mph 19.6 mph N/A   Overcast
8:52 AM 33.1 °F 24.9 °F 24.1 °F 70% 30.27 in 8.0 mi East 10.4 mph 19.6 mph 0.00 in Snow Light Snow
9:15 AM 33.1 °F 27.7 °F 26.1 °F 75% 30.26 in 2.0 mi East 5.8 mph - 0.00 in Snow Light Snow
9:24 AM 33.1 °F 26.1 °F 26.1 °F 75% 30.25 in 1.2 mi East 8.1 mph - 0.00 in Snow Light Snow
9:39 AM 32.0 °F 24.2 °F 27.0 °F 82% 30.24 in 0.8 mi East 9.2 mph - 0.00 in Snow Light Snow
9:52 AM 33.1 °F 25.5 °F 28.0 °F 82% 30.24 in 1.0 mi East 9.2 mph - 0.00 in Snow Light Snow
10:25 AM 33.1 °F 25.5 °F 28.0 °F 82% 30.22 in 1.2 mi East 9.2 mph - 0.01 in Snow Light Snow
10:52 AM 33.1 °F 26.1 °F 28.9 °F 85% 30.20 in 1.0 mi East 8.1 mph - 0.01 in Snow Light Snow
11:35 AM 34.0 °F 28.8 °F 30.0 °F 85% 30.14 in 0.8 mi Variable 5.8 mph - 0.02 in Snow Light Snow
11:52 AM 34.0 °F 26.6 °F 30.0 °F 85% 30.13 in 0.5 mi ENE 9.2 mph - 0.03 in Fog , Snow Snow
12:52 PM 34.0 °F 27.2 °F 30.0 °F 85% 30.08 in 0.8 mi ENE 8.1 mph - 0.05 in Snow Light Snow
1:52 PM 34.0 °F 26.0 °F 30.0 °F 85% 30.02 in 0.8 mi ENE 10.4 mph 23.0 mph 0.04 in Snow Light Snow
2:52 PM 34.0 °F 27.2 °F 30.0 °F 85% 29.98 in 0.8 mi ENE 8.1 mph 18.4 mph 0.05 in Snow Light Snow
3:52 PM 34.0 °F 25.5 °F 30.9 °F 89% 29.89 in 0.5 mi ENE 11.5 mph 23.0 mph 0.05 in Fog , Snow Snow
4:20 PM 34.0 °F 25.0 °F 30.0 °F 85% 29.86 in 0.8 mi ENE 12.7 mph 24.2 mph 0.02 in Snow Light Snow
4:33 PM 34.0 °F 26.6 °F 30.0 °F 85% 29.85 in 0.5 mi ENE 9.2 mph 25.3 mph 0.03 in Fog , Snow Snow
4:52 PM 34.0 °F 23.8 °F 30.0 °F 85% 29.83 in 0.5 mi ENE 16.1 mph 28.8 mph 0.05 in Fog , Snow Snow
5:09 PM 34.0 °F 25.0 °F 30.0 °F 85% 29.82 in 0.5 mi NE 12.7 mph 26.5 mph 0.03 in Fog , Snow Snow
5:52 PM 34.0 °F 26.0 °F 30.9 °F 89% 29.80 in 0.5 mi NE 10.4 mph 23.0 mph 0.12 in Fog , Snow Snow
6:18 PM 34.0 °F 24.2 °F 30.0 °F 85% 29.78 in 0.2 mi NE 15.0 mph 34.5 mph 0.06 in Fog , Snow Heavy Snow
6:52 PM 34.0 °F 23.8 °F 30.9 °F 89% 29.72 in 0.2 mi NNE 16.1 mph 31.1 mph 0.19 in Fog , Snow Heavy Snow
7:52 PM 33.1 °F 20.9 °F 30.9 °F 92% 29.66 in 0.5 mi NE 21.9 mph 33.4 mph 0.25 in Fog , Snow Snow
8:52 PM 33.1 °F 20.6 °F 32.0 °F 96% 29.57 in 0.2 mi NNE 23.0 mph 50.6 mph 0.22 in Fog , Snow Heavy Snow
9:52 PM 32.0 °F 19.2 °F 30.9 °F 96% 29.56 in 0.2 mi NNE 23.0 mph 40.3 mph 0.11 in Fog , Snow Snow
10:52 PM 30.9 °F 16.7 °F 30.9 °F 100% 29.49 in 0.2 mi NNE 27.6 mph 48.3 mph 0.14 in Fog , Snow Snow